When you browse on this site, cookies collect data to enhance your experience and personalize the content and advertising you see.
Visit our Privacy Policy to learn more. By continuing to use the site, you agree to this use of cookies and data.
  • In Czech Republic
  • List of Countries
  • For 7 days
  • Water Temperature
  • Satellite Maps
  • Weather Map
  • Weather Widgets
  • user-avatar
    Login

    Hourly Weather Roskov

    Today, 24 July, Wednesday

    Time Temperature Precipitation Wind Pressure Humidity
    00:00 +15°C° 0 mm 1 mps 743 mmHg 97%
    01:00 +15°C° 0 mm 1 mps 743 mmHg 97%
    02:00 +14°C° 0 mm 1 mps 743 mmHg 97%
    03:00 +15°C° 0.4 mm 1 mps 743 mmHg 97%
    04:00 +15°C° 0.4 mm 1 mps 743 mmHg 98%
    05:00 +15°C° 0.4 mm 2 mps 743 mmHg 98%
    06:00 +16°C° 0.9 mm 2 mps 744 mmHg 97%
    07:00 +17°C° 0.9 mm 3 mps 744 mmHg 96%
    08:00 +17°C° 0.9 mm 3 mps 744 mmHg 94%
    09:00 +18°C° 0.5 mm 4 mps 744 mmHg 91%
    10:00 +19°C° 0.5 mm 4 mps 744 mmHg 88%
    11:00 +20°C° 0.5 mm 5 mps 744 mmHg 84%
    12:00 +21°C° 0.4 mm 5 mps 744 mmHg 79%
    13:00 +22°C° 0.4 mm 5 mps 744 mmHg 73%
    14:00 +22°C° 0.4 mm 5 mps 744 mmHg 67%
    15:00 +22°C° 0.2 mm 4 mps 744 mmHg 70%
    16:00 +22°C° 0.2 mm 4 mps 744 mmHg 72%
    17:00 +21°C° 0.2 mm 3 mps 744 mmHg 75%
    18:00 +20°C° 0 mm 3 mps 744 mmHg 79%
    19:00 +18°C° 0 mm 3 mps 744 mmHg 82%
    20:00 +16°C° 0 mm 2 mps 744 mmHg 86%
    21:00 +16°C° 0 mm 2 mps 745 mmHg 87%
    22:00 +14°C° 0 mm 3 mps 745 mmHg 88%
    23:00 +13°C° 0 mm 3 mps 745 mmHg 89%

    Tomorrow, 25 July, Thursday

    Time Temperature Precipitation Wind Pressure Humidity
    00:00 +13°C° 0 mm 3 mps 745 mmHg 90%
    01:00 +13°C° 0 mm 3 mps 745 mmHg 92%
    02:00 +13°C° 0 mm 3 mps 745 mmHg 93%
    03:00 +13°C° 0 mm 3 mps 745 mmHg 93%
    04:00 +13°C° 0 mm 3 mps 745 mmHg 93%
    05:00 +13°C° 0 mm 3 mps 745 mmHg 92%
    06:00 +14°C° 0 mm 3 mps 745 mmHg 88%
    07:00 +16°C° 0 mm 3 mps 746 mmHg 84%
    08:00 +18°C° 0 mm 3 mps 746 mmHg 80%
    09:00 +18°C° 0 mm 3 mps 746 mmHg 78%
    10:00 +19°C° 0 mm 3 mps 745 mmHg 76%
    11:00 +19°C° 0 mm 2 mps 745 mmHg 75%
    12:00 +20°C° 0.4 mm 2 mps 745 mmHg 74%
    13:00 +21°C° 0.4 mm 2 mps 745 mmHg 72%
    14:00 +23°C° 0.4 mm 2 mps 745 mmHg 71%
    15:00 +23°C° 1.1 mm 2 mps 745 mmHg 74%
    16:00 +21°C° 1.1 mm 2 mps 744 mmHg 77%
    17:00 +21°C° 1.1 mm 2 mps 744 mmHg 79%
    18:00 +20°C° 0.2 mm 1 mps 744 mmHg 83%
    19:00 +19°C° 0.2 mm 1 mps 744 mmHg 86%
    20:00 +16°C° 0.2 mm 0 mps 744 mmHg 89%
    21:00 +16°C° 0 mm 1 mps 744 mmHg 90%
    22:00 +16°C° 0 mm 1 mps 745 mmHg 92%
    23:00 +15°C° 0 mm 2 mps 745 mmHg 93%

    Day after tomorrow, 26 July, Friday

    Time Temperature Precipitation Wind Pressure Humidity
    00:00 +15°C° 0 mm 2 mps 745 mmHg 94%
    01:00 +15°C° 0 mm 2 mps 745 mmHg 95%
    02:00 +14°C° 0 mm 2 mps 745 mmHg 96%
    03:00 +14°C° 0 mm 2 mps 745 mmHg 96%
    04:00 +15°C° 0 mm 2 mps 745 mmHg 96%
    05:00 +15°C° 0 mm 2 mps 745 mmHg 96%
    06:00 +16°C° 0 mm 3 mps 745 mmHg 95%
    07:00 +17°C° 0 mm 3 mps 745 mmHg 94%
    08:00 +18°C° 0 mm 4 mps 745 mmHg 92%
    09:00 +18°C° 0.8 mm 4 mps 745 mmHg 93%
    10:00 +18°C° 0.8 mm 4 mps 745 mmHg 94%
    11:00 +18°C° 0.8 mm 4 mps 745 mmHg 95%
    12:00 +18°C° 0.8 mm 4 mps 745 mmHg 95%
    13:00 +18°C° 0.8 mm 4 mps 745 mmHg 95%
    14:00 +18°C° 0.8 mm 4 mps 745 mmHg 95%
    15:00 +19°C° 0.3 mm 4 mps 745 mmHg 94%
    16:00 +19°C° 0.3 mm 3 mps 745 mmHg 93%
    17:00 +20°C° 0.3 mm 3 mps 745 mmHg 91%
    18:00 +20°C° 0.4 mm 3 mps 745 mmHg 92%
    19:00 +19°C° 0.4 mm 3 mps 745 mmHg 92%
    20:00 +19°C° 0.4 mm 3 mps 745 mmHg 93%
    21:00 +19°C° 0 mm 3 mps 745 mmHg 93%
    22:00 +18°C° 0 mm 3 mps 745 mmHg 94%
    23:00 +18°C° 0 mm 3 mps 745 mmHg 94%

    27 July, Saturday

    Time Temperature Precipitation Wind Pressure Humidity
    00:00 +18°C° 0 mm 3 mps 744 mmHg 95%
    01:00 +18°C° 0 mm 3 mps 744 mmHg 96%
    02:00 +17°C° 0 mm 3 mps 744 mmHg 96%
    03:00 +17°C° 0 mm 4 mps 744 mmHg 96%
    04:00 +17°C° 0 mm 4 mps 744 mmHg 97%
    05:00 +17°C° 0 mm 4 mps 744 mmHg 97%
    06:00 +19°C° 0 mm 5 mps 744 mmHg 93%
    07:00 +20°C° 0 mm 5 mps 744 mmHg 90%
    08:00 +21°C° 0 mm 6 mps 744 mmHg 86%
    09:00 +22°C° 0.1 mm 6 mps 744 mmHg 82%
    10:00 +23°C° 0.1 mm 6 mps 744 mmHg 77%
    11:00 +24°C° 0.1 mm 6 mps 744 mmHg 73%
    12:00 +24°C° 0.4 mm 6 mps 744 mmHg 72%
    13:00 +26°C° 0.4 mm 5 mps 743 mmHg 71%
    14:00 +26°C° 0.4 mm 5 mps 743 mmHg 70%
    15:00 +26°C° 0.4 mm 4 mps 743 mmHg 74%
    16:00 +26°C° 0.4 mm 4 mps 743 mmHg 77%
    17:00 +25°C° 0.4 mm 3 mps 743 mmHg 81%
    18:00 +24°C° 0.2 mm 3 mps 743 mmHg 84%
    19:00 +21°C° 0.2 mm 3 mps 743 mmHg 88%
    20:00 +20°C° 0.2 mm 3 mps 743 mmHg 91%
    21:00 +19°C° 0 mm 3 mps 743 mmHg 92%
    22:00 +19°C° 0 mm 3 mps 743 mmHg 93%
    23:00 +18°C° 0 mm 3 mps 743 mmHg 94%

    28 July, Sunday

    Time Temperature Precipitation Wind Pressure Humidity
    00:00 +18°C° 0 mm 3 mps 743 mmHg 95%
    01:00 +18°C° 0 mm 3 mps 742 mmHg 95%
    02:00 +17°C° 0 mm 3 mps 742 mmHg 95%
    03:00 +17°C° 0 mm 3 mps 742 mmHg 95%
    04:00 +17°C° 0 mm 3 mps 742 mmHg 94%
    05:00 +17°C° 0 mm 3 mps 742 mmHg 94%
    06:00 +18°C° 0 mm 3 mps 742 mmHg 91%
    07:00 +20°C° 0 mm 4 mps 742 mmHg 89%
    08:00 +21°C° 0 mm 4 mps 742 mmHg 86%
    09:00 +22°C° 0.1 mm 5 mps 742 mmHg 83%
    10:00 +22°C° 0.1 mm 6 mps 742 mmHg 80%
    11:00 +23°C° 0.1 mm 6 mps 742 mmHg 77%
    12:00 +22°C° 0 mm 6 mps 742 mmHg 75%
    13:00 +22°C° 0 mm 6 mps 742 mmHg 72%
    14:00 +22°C° 0 mm 6 mps 742 mmHg 69%
    15:00 +21°C° 0 mm 6 mps 742 mmHg 70%
    16:00 +21°C° 0 mm 6 mps 742 mmHg 71%
    17:00 +20°C° 0 mm 6 mps 742 mmHg 71%
    18:00 +17°C° 0 mm 5 mps 743 mmHg 75%
    19:00 +15°C° 0 mm 4 mps 743 mmHg 79%
    20:00 +13°C° 0 mm 3 mps 743 mmHg 83%
    21:00 +12°C° 0 mm 3 mps 743 mmHg 80%
    22:00 +11°C° 0 mm 3 mps 744 mmHg 78%
    23:00 +10°C° 0 mm 4 mps 744 mmHg 76%

    29 July, Monday

    Time Temperature Precipitation Wind Pressure Humidity
    00:00 +10°C° 0 mm 3 mps 744 mmHg 79%
    01:00 +9°C° 0 mm 3 mps 744 mmHg 82%
    02:00 +8°C° 0 mm 3 mps 745 mmHg 85%
    03:00 +8°C° 0 mm 3 mps 745 mmHg 86%
    04:00 +7°C° 0 mm 3 mps 745 mmHg 87%
    05:00 +7°C° 0 mm 2 mps 745 mmHg 88%
    06:00 +9°C° 0 mm 3 mps 745 mmHg 81%
    07:00 +10°C° 0 mm 3 mps 745 mmHg 74%
    08:00 +12°C° 0 mm 4 mps 745 mmHg 67%
    09:00 +13°C° 0 mm 4 mps 745 mmHg 66%
    10:00 +13°C° 0 mm 4 mps 745 mmHg 64%
    11:00 +14°C° 0 mm 5 mps 746 mmHg 63%
    12:00 +14°C° 0 mm 5 mps 745 mmHg 63%
    13:00 +14°C° 0 mm 4 mps 745 mmHg 64%
    14:00 +14°C° 0 mm 4 mps 745 mmHg 64%
    15:00 +14°C° 0 mm 4 mps 745 mmHg 66%
    16:00 +14°C° 0 mm 3 mps 745 mmHg 68%
    17:00 +14°C° 0 mm 3 mps 745 mmHg 70%
    18:00 +13°C° 0 mm 3 mps 745 mmHg 74%
    19:00 +12°C° 0 mm 2 mps 745 mmHg 78%
    20:00 +10°C° 0 mm 2 mps 745 mmHg 82%
    21:00 +10°C° 0 mm 2 mps 745 mmHg 83%
    22:00 +9°C° 0 mm 2 mps 744 mmHg 85%
    23:00 +9°C° 0 mm 2 mps 744 mmHg 86%
    Show more